sat.trackr.live / text

‹ back to catalog

STARLINK-35783

NORAD 66286 · 2025-247X

PAYLOAD ACTIVE UNKNOWN

§ Identity

Operator
Country
US
Launch date
2025-10-31
Launch site
AFWTR
Launch vehicle
Mass (kg)
RCS (m²)

Purposes: comms

External: N2YO · Heavens-Above · Gunter

§ Orbital elements

Epoch: 2026-09-20T22:26:56.227200Z

Period
93.85 min
Inclination
53.1602°
Eccentricity
0.0000885
Mean motion
15.34399438 rev/d
Perigee alt
462.1 km
Apogee alt
463.3 km
Semi-major
6,840.8 km
B*
5.5953e-4
RAAN
1.9200°
Arg perigee
86.7120°
Mean anomaly
273.3984°
Rev number
5,096

§ Raw data

STARLINK-357831 66286U 25247X   26263.93537300  .00018575  00000+0  55953-3 0  99922 66286  53.1602   1.9200 0000885  86.7120 273.3984 15.34399438 50969

JSON: /api/v1/satellites/66286 · /tle

For live sub-satellite position, see the globe view (requires WebGL).

§ Visibility from observer

Set your observer location to see the next 7 days of passes ≥ 10°. The values pass through the URL so the page stays shareable.

No JS? Fill the form by hand. The geolocation button needs JavaScript.